sat.trackr.live / text

‹ back to catalog

STARLINK-36357

NORAD 67963 · 2026-038C

PAYLOAD ACTIVE UNKNOWN

§ Identity

Operator
Country
US
Launch date
2026-02-25
Launch site
AFWTR
Launch vehicle
Mass (kg)
RCS (m²)

Purposes: comms

External: N2YO · Heavens-Above · Gunter

§ Orbital elements

Epoch: 2026-09-19T14:36:20.338272Z

Period
93.91 min
Inclination
97.2846°
Eccentricity
0.0001358
Mean motion
15.33450255 rev/d
Perigee alt
464.6 km
Apogee alt
466.5 km
Semi-major
6,843.7 km
B*
3.6926e-4
RAAN
270.9120°
Arg perigee
94.7717°
Mean anomaly
265.3681°
Rev number
3,295

§ Raw data

STARLINK-363571 67963U 26038C   26262.60856873  .00011867  00000+0  36926-3 0  99922 67963  97.2846 270.9120 0001358  94.7717 265.3681 15.33450255 32955

JSON: /api/v1/satellites/67963 · /tle

For live sub-satellite position, see the globe view (requires WebGL).

§ Visibility from observer

Set your observer location to see the next 7 days of passes ≥ 10°. The values pass through the URL so the page stays shareable.

No JS? Fill the form by hand. The geolocation button needs JavaScript.